When you browse on this site, cookies collect data to enhance your experience and personalize the content and advertising you see.
Visit our Privacy Policy to learn more. By continuing to use the site, you agree to this use of cookies and data.
  • Em Portugal
  • Lista de países
  • Para 7 dias
  • Temperatura da água
  • Mapa do tempo
  • Widgets de tempo
  • user-avatar
    Iniciar Sessão

    Previsão horária em Ghent

    Hoje, 19 Fevereiro, Quarta-feira

    Tempo Temperatura Precipitação Vento Pressão Humidade
    00:00 +5°C° 0 mm 8 m/s 760 mmHg 82%
    01:00 +5°C° 0.4 mm 7 m/s 760 mmHg 80%
    02:00 +4°C° 0.4 mm 7 m/s 760 mmHg 79%
    03:00 +4°C° 0.4 mm 6 m/s 760 mmHg 77%
    04:00 +3°C° 0 mm 6 m/s 761 mmHg 77%
    05:00 +3°C° 0 mm 6 m/s 762 mmHg 78%
    06:00 +3°C° 0 mm 6 m/s 763 mmHg 78%
    07:00 +3°C° 0 mm 6 m/s 763 mmHg 75%
    08:00 +3°C° 0 mm 6 m/s 764 mmHg 73%
    09:00 +4°C° 0 mm 6 m/s 765 mmHg 70%
    10:00 +4°C° 0 mm 6 m/s 765 mmHg 68%
    11:00 +5°C° 0 mm 6 m/s 765 mmHg 66%
    12:00 +5°C° 0 mm 6 m/s 765 mmHg 65%
    13:00 +5°C° 0 mm 6 m/s 765 mmHg 63%
    14:00 +5°C° 0 mm 6 m/s 765 mmHg 62%
    15:00 +7°C° 0 mm 6 m/s 765 mmHg 61%
    16:00 +6°C° 0 mm 5 m/s 765 mmHg 66%
    17:00 +6°C° 0 mm 5 m/s 764 mmHg 72%
    18:00 +6°C° 0 mm 4 m/s 764 mmHg 78%
    19:00 +6°C° 0.1 mm 5 m/s 764 mmHg 81%
    20:00 +5°C° 0.1 mm 6 m/s 764 mmHg 83%
    21:00 +5°C° 0.1 mm 6 m/s 764 mmHg 86%
    22:00 +5°C° 0 mm 6 m/s 763 mmHg 86%
    23:00 +5°C° 0 mm 6 m/s 763 mmHg 85%

    Amanhã, 20 Fevereiro, Quinta-feira

    Tempo Temperatura Precipitação Vento Pressão Humidade
    00:00 +6°C° 0 mm 7 m/s 762 mmHg 85%
    01:00 +5°C° 0 mm 6 m/s 762 mmHg 85%
    02:00 +5°C° 0 mm 6 m/s 761 mmHg 86%
    03:00 +5°C° 0 mm 6 m/s 761 mmHg 87%
    04:00 +5°C° 0 mm 6 m/s 761 mmHg 86%
    05:00 +5°C° 0 mm 6 m/s 761 mmHg 85%
    06:00 +5°C° 0 mm 6 m/s 760 mmHg 84%
    07:00 +5°C° 0 mm 7 m/s 760 mmHg 81%
    08:00 +6°C° 0 mm 7 m/s 760 mmHg 78%
    09:00 +6°C° 0 mm 8 m/s 760 mmHg 75%
    10:00 +7°C° 0 mm 8 m/s 759 mmHg 73%
    11:00 +7°C° 0 mm 8 m/s 759 mmHg 72%
    12:00 +7°C° 0 mm 9 m/s 758 mmHg 70%
    13:00 +8°C° 0 mm 9 m/s 758 mmHg 69%
    14:00 +8°C° 0 mm 9 m/s 757 mmHg 68%
    15:00 +10°C° 0 mm 9 m/s 756 mmHg 67%
    16:00 +7°C° 1.5 mm 9 m/s 757 mmHg 73%
    17:00 +5°C° 1.5 mm 9 m/s 758 mmHg 80%
    18:00 +2°C° 1.5 mm 9 m/s 758 mmHg 86%
    19:00 +2°C° 0.2 mm 8 m/s 760 mmHg 79%
    20:00 +3°C° 0.2 mm 7 m/s 761 mmHg 72%
    21:00 +3°C° 0.2 mm 6 m/s 763 mmHg 65%
    22:00 +3°C° 0 mm 6 m/s 764 mmHg 66%
    23:00 +2°C° 0 mm 6 m/s 765 mmHg 68%

    Depois de amanhã, 21 Fevereiro, Sexta-feira

    Tempo Temperatura Precipitação Vento Pressão Humidade
    00:00 +2°C° 0 mm 6 m/s 766 mmHg 69%
    01:00 +2°C° 0 mm 6 m/s 766 mmHg 70%
    02:00 +1°C° 0 mm 6 m/s 767 mmHg 71%
    03:00 +1°C° 0 mm 5 m/s 767 mmHg 72%
    04:00 +1°C° 0 mm 5 m/s 768 mmHg 74%
    05:00 +1°C° 0 mm 5 m/s 768 mmHg 76%
    06:00 +1°C° 0 mm 4 m/s 769 mmHg 78%
    13:00 +8°C° 0 mm 7 m/s 770 mmHg 60%
    14:00 +8°C° 0 mm 7 m/s 769 mmHg 63%
    15:00 +8°C° 0 mm 7 m/s 769 mmHg 65%
    16:00 +6°C° 0 mm 7 m/s 769 mmHg 68%
    17:00 +6°C° 0 mm 7 m/s 769 mmHg 70%
    18:00 +5°C° 0 mm 7 m/s 769 mmHg 73%
    19:00 +5°C° 0 mm 7 m/s 769 mmHg 74%
    20:00 +4°C° 0 mm 7 m/s 769 mmHg 75%
    21:00 +4°C° 0 mm 7 m/s 768 mmHg 76%
    22:00 +4°C° 0 mm 7 m/s 768 mmHg 77%
    23:00 +4°C° 0 mm 8 m/s 768 mmHg 79%

    22 Fevereiro, Sábado

    Tempo Temperatura Precipitação Vento Pressão Humidade
    00:00 +2°C° 0 mm 8 m/s 768 mmHg 80%
    01:00 +2°C° 0 mm 8 m/s 768 mmHg 80%
    02:00 +2°C° 0 mm 8 m/s 767 mmHg 81%
    03:00 +2°C° 0 mm 8 m/s 767 mmHg 81%
    04:00 +2°C° 0 mm 8 m/s 767 mmHg 81%
    05:00 +2°C° 0 mm 8 m/s 766 mmHg 81%
    06:00 +2°C° 0 mm 8 m/s 766 mmHg 81%
    07:00 +2°C° 0 mm 9 m/s 766 mmHg 79%
    08:00 +3°C° 0 mm 9 m/s 766 mmHg 77%
    09:00 +5°C° 0 mm 10 m/s 766 mmHg 75%
    10:00 +6°C° 0 mm 10 m/s 766 mmHg 74%
    11:00 +6°C° 0 mm 9 m/s 766 mmHg 74%
    12:00 +7°C° 0 mm 9 m/s 766 mmHg 74%
    13:00 +8°C° 0 mm 9 m/s 766 mmHg 75%
    14:00 +8°C° 0 mm 9 m/s 765 mmHg 76%
    15:00 +10°C° 0 mm 9 m/s 765 mmHg 77%
    16:00 +10°C° 0 mm 9 m/s 765 mmHg 78%
    17:00 +10°C° 0 mm 9 m/s 766 mmHg 79%
    18:00 +10°C° 0 mm 8 m/s 766 mmHg 80%
    19:00 +10°C° 0 mm 8 m/s 766 mmHg 81%
    20:00 +10°C° 0 mm 8 m/s 767 mmHg 82%
    21:00 +9°C° 0 mm 7 m/s 767 mmHg 83%
    22:00 +9°C° 0 mm 7 m/s 767 mmHg 83%
    23:00 +9°C° 0 mm 7 m/s 767 mmHg 83%

    23 Fevereiro, Domingo

    Tempo Temperatura Precipitação Vento Pressão Humidade
    00:00 +9°C° 0 mm 6 m/s 767 mmHg 83%
    01:00 +9°C° 0.3 mm 6 m/s 767 mmHg 85%
    02:00 +9°C° 0.3 mm 5 m/s 766 mmHg 88%
    03:00 +9°C° 0.3 mm 5 m/s 766 mmHg 90%
    04:00 +9°C° 1 mm 5 m/s 765 mmHg 91%
    05:00 +9°C° 1 mm 5 m/s 765 mmHg 93%
    06:00 +10°C° 1 mm 4 m/s 764 mmHg 95%
    07:00 +9°C° 0.6 mm 7 m/s 763 mmHg 91%
    08:00 +10°C° 0.6 mm 9 m/s 762 mmHg 88%
    09:00 +11°C° 0.6 mm 11 m/s 761 mmHg 85%
    10:00 +10°C° 0.1 mm 12 m/s 761 mmHg 83%
    11:00 +10°C° 0.1 mm 12 m/s 761 mmHg 81%
    12:00 +10°C° 0.1 mm 13 m/s 760 mmHg 80%
    13:00 +10°C° 0.3 mm 12 m/s 760 mmHg 81%
    14:00 +10°C° 0.3 mm 12 m/s 760 mmHg 83%
    15:00 +10°C° 0.3 mm 12 m/s 760 mmHg 84%
    16:00 +9°C° 0.2 mm 11 m/s 761 mmHg 81%
    17:00 +9°C° 0.2 mm 11 m/s 762 mmHg 77%
    18:00 +8°C° 0.2 mm 10 m/s 763 mmHg 73%
    19:00 +6°C° 0 mm 8 m/s 765 mmHg 71%
    20:00 +5°C° 0 mm 7 m/s 767 mmHg 69%
    21:00 +5°C° 0 mm 5 m/s 769 mmHg 67%
    22:00 +4°C° 0 mm 4 m/s 770 mmHg 69%
    23:00 +4°C° 0 mm 4 m/s 770 mmHg 70%

    24 Fevereiro, Segunda-feira

    Tempo Temperatura Precipitação Vento Pressão Humidade
    00:00 +3°C° 0 mm 4 m/s 771 mmHg 71%
    01:00 +3°C° 0 mm 3 m/s 772 mmHg 73%
    02:00 +3°C° 0 mm 3 m/s 772 mmHg 75%
    03:00 +3°C° 0 mm 2 m/s 772 mmHg 76%
    04:00 +3°C° 0 mm 2 m/s 772 mmHg 78%
    05:00 +3°C° 0 mm 2 m/s 773 mmHg 79%
    06:00 +4°C° 0 mm 1 m/s 773 mmHg 81%
    07:00 +3°C° 0 mm 2 m/s 772 mmHg 78%
    08:00 +3°C° 0 mm 3 m/s 772 mmHg 75%
    09:00 +4°C° 0 mm 4 m/s 772 mmHg 72%
    10:00 +5°C° 0 mm 4 m/s 771 mmHg 66%
    11:00 +6°C° 0 mm 5 m/s 770 mmHg 61%
    12:00 +7°C° 0 mm 6 m/s 770 mmHg 55%
    13:00 +7°C° 0 mm 6 m/s 769 mmHg 56%
    14:00 +7°C° 0 mm 6 m/s 767 mmHg 57%
    15:00 +8°C° 0 mm 6 m/s 766 mmHg 58%
    16:00 +8°C° 0 mm 6 m/s 766 mmHg 61%
    17:00 +8°C° 0 mm 6 m/s 765 mmHg 64%
    18:00 +8°C° 0 mm 7 m/s 764 mmHg 67%
    19:00 +8°C° 0 mm 7 m/s 763 mmHg 71%
    20:00 +9°C° 0 mm 7 m/s 762 mmHg 76%
    21:00 +9°C° 0 mm 8 m/s 762 mmHg 80%
    22:00 +9°C° 0 mm 8 m/s 761 mmHg 82%
    23:00 +10°C° 0 mm 8 m/s 760 mmHg 84%
    Mostrar mais